• In Switzerland
  • List of Countries
  • For 7 days
  • Water Temperature
  • Satellite Maps
  • Weather Map
  • Weather Widgets
  • user-avatar
    Login

    Hourly Weather Maloe Ozerevo

    Today, 18 August, Saturday

    Time Temperature Precipitation Wind Pressure Humidity
    00:00 +16°C° 0 mm 2 mps 759 mmHg 88%
    01:00 +15°C° 0 mm 2 mps 759 mmHg 89%
    02:00 +15°C° 0 mm 2 mps 760 mmHg 94%
    03:00 +15°C° 0 mm 2 mps 760 mmHg 95%
    04:00 +15°C° 0 mm 2 mps 759 mmHg 96%
    05:00 +15°C° 0 mm 2 mps 759 mmHg 97%
    06:00 +16°C° 0 mm 2 mps 759 mmHg 90%
    07:00 +18°C° 0 mm 2 mps 759 mmHg 84%
    08:00 +20°C° 0 mm 2 mps 759 mmHg 78%
    09:00 +23°C° 0 mm 2 mps 759 mmHg 73%
    10:00 +24°C° 0 mm 3 mps 759 mmHg 67%
    11:00 +26°C° 0 mm 3 mps 759 mmHg 62%
    12:00 +26°C° 0.2 mm 3 mps 758 mmHg 61%
    13:00 +26°C° 0.2 mm 3 mps 758 mmHg 61%
    14:00 +27°C° 0.2 mm 3 mps 758 mmHg 60%
    15:00 +26°C° 0.3 mm 3 mps 758 mmHg 65%
    16:00 +26°C° 0.3 mm 2 mps 757 mmHg 69%
    17:00 +25°C° 0.3 mm 2 mps 757 mmHg 74%
    18:00 +24°C° 0.1 mm 2 mps 757 mmHg 80%
    19:00 +21°C° 0.1 mm 2 mps 757 mmHg 87%
    20:00 +20°C° 0.1 mm 2 mps 757 mmHg 93%
    21:00 +19°C° 0 mm 2 mps 757 mmHg 95%
    22:00 +19°C° 0 mm 2 mps 757 mmHg 96%
    23:00 +18°C° 0 mm 2 mps 757 mmHg 97%

    Tomorrow, 19 August, Sunday

    Time Temperature Precipitation Wind Pressure Humidity
    00:00 +18°C° 0 mm 2 mps 756 mmHg 97%
    01:00 +18°C° 0 mm 2 mps 756 mmHg 97%
    02:00 +17°C° 0 mm 2 mps 756 mmHg 98%
    03:00 +17°C° 0 mm 2 mps 756 mmHg 98%
    04:00 +17°C° 0 mm 2 mps 756 mmHg 98%
    05:00 +17°C° 0 mm 2 mps 756 mmHg 98%
    06:00 +18°C° 0 mm 2 mps 756 mmHg 94%
    07:00 +19°C° 0 mm 2 mps 756 mmHg 89%
    08:00 +20°C° 0 mm 3 mps 756 mmHg 85%
    09:00 +21°C° 0 mm 3 mps 756 mmHg 75%
    10:00 +22°C° 0 mm 3 mps 756 mmHg 66%
    11:00 +23°C° 0 mm 4 mps 756 mmHg 57%
    12:00 +23°C° 0 mm 4 mps 755 mmHg 55%
    13:00 +23°C° 0 mm 4 mps 755 mmHg 53%
    14:00 +25°C° 0 mm 4 mps 755 mmHg 51%
    15:00 +23°C° 0.2 mm 4 mps 755 mmHg 59%
    16:00 +22°C° 0.2 mm 3 mps 755 mmHg 67%
    17:00 +21°C° 0.2 mm 3 mps 755 mmHg 75%
    18:00 +20°C° 0.1 mm 3 mps 755 mmHg 81%
    19:00 +19°C° 0.1 mm 2 mps 755 mmHg 87%
    20:00 +18°C° 0.1 mm 2 mps 755 mmHg 92%
    21:00 +18°C° 0 mm 2 mps 755 mmHg 94%
    22:00 +17°C° 0 mm 2 mps 755 mmHg 95%
    23:00 +17°C° 0 mm 2 mps 755 mmHg 97%

    Day after tomorrow, 20 August, Monday

    Time Temperature Precipitation Wind Pressure Humidity
    00:00 +16°C° 0 mm 2 mps 755 mmHg 97%
    01:00 +16°C° 0 mm 2 mps 755 mmHg 98%
    02:00 +16°C° 0 mm 2 mps 755 mmHg 98%
    03:00 +16°C° 0 mm 2 mps 755 mmHg 98%
    04:00 +16°C° 0 mm 2 mps 755 mmHg 98%
    05:00 +16°C° 0 mm 2 mps 755 mmHg 98%
    06:00 +16°C° 0.2 mm 2 mps 755 mmHg 97%
    07:00 +17°C° 0.2 mm 2 mps 755 mmHg 95%
    08:00 +18°C° 0.2 mm 2 mps 755 mmHg 94%
    09:00 +19°C° 0 mm 2 mps 755 mmHg 88%
    10:00 +19°C° 0 mm 3 mps 755 mmHg 81%
    11:00 +20°C° 0 mm 3 mps 754 mmHg 75%
    12:00 +21°C° 0 mm 3 mps 754 mmHg 71%
    13:00 +22°C° 0 mm 3 mps 754 mmHg 67%
    14:00 +24°C° 0 mm 3 mps 754 mmHg 63%
    15:00 +22°C° 0.4 mm 3 mps 753 mmHg 70%
    16:00 +21°C° 0.4 mm 2 mps 753 mmHg 78%
    17:00 +20°C° 0.4 mm 2 mps 752 mmHg 85%
    18:00 +19°C° 0.5 mm 2 mps 752 mmHg 89%
    19:00 +19°C° 0.5 mm 2 mps 752 mmHg 92%
    20:00 +18°C° 0.5 mm 2 mps 751 mmHg 96%
    21:00 +18°C° 0.3 mm 3 mps 751 mmHg 95%
    22:00 +18°C° 0.3 mm 3 mps 750 mmHg 95%
    23:00 +18°C° 0.3 mm 4 mps 749 mmHg 95%

    21 August, Tuesday

    Time Temperature Precipitation Wind Pressure Humidity
    00:00 +18°C° 0 mm 4 mps 748 mmHg 95%
    01:00 +18°C° 0 mm 4 mps 748 mmHg 95%
    02:00 +17°C° 0 mm 5 mps 747 mmHg 94%
    03:00 +17°C° 0.3 mm 5 mps 747 mmHg 94%
    04:00 +17°C° 0.3 mm 5 mps 746 mmHg 94%
    05:00 +16°C° 0.3 mm 6 mps 746 mmHg 94%
    06:00 +16°C° 1.3 mm 5 mps 746 mmHg 94%
    07:00 +16°C° 1.3 mm 5 mps 746 mmHg 94%
    08:00 +16°C° 1.3 mm 5 mps 746 mmHg 94%
    09:00 +17°C° 0.2 mm 5 mps 747 mmHg 87%
    10:00 +17°C° 0.2 mm 5 mps 747 mmHg 80%
    11:00 +19°C° 0.2 mm 5 mps 748 mmHg 73%
    12:00 +19°C° 0.2 mm 5 mps 748 mmHg 67%
    13:00 +20°C° 0.2 mm 6 mps 749 mmHg 61%
    14:00 +20°C° 0.2 mm 6 mps 749 mmHg 55%
    15:00 +20°C° 0 mm 6 mps 750 mmHg 55%
    16:00 +20°C° 0 mm 5 mps 750 mmHg 56%
    17:00 +19°C° 0 mm 5 mps 750 mmHg 56%
    18:00 +17°C° 0 mm 5 mps 751 mmHg 62%
    19:00 +15°C° 0 mm 4 mps 752 mmHg 68%
    20:00 +14°C° 0 mm 4 mps 752 mmHg 73%
    21:00 +13°C° 0 mm 4 mps 752 mmHg 74%
    22:00 +13°C° 0 mm 4 mps 753 mmHg 75%
    23:00 +13°C° 0 mm 4 mps 753 mmHg 75%

    22 August, Wednesday

    Time Temperature Precipitation Wind Pressure Humidity
    00:00 +12°C° 0 mm 4 mps 754 mmHg 77%
    01:00 +12°C° 0 mm 4 mps 754 mmHg 78%
    02:00 +12°C° 0 mm 4 mps 755 mmHg 80%
    03:00 +11°C° 0 mm 4 mps 755 mmHg 81%
    04:00 +11°C° 0 mm 4 mps 756 mmHg 82%
    05:00 +11°C° 0 mm 4 mps 757 mmHg 83%
    06:00 +12°C° 0 mm 4 mps 757 mmHg 75%
    07:00 +13°C° 0 mm 4 mps 758 mmHg 67%
    08:00 +14°C° 0 mm 4 mps 758 mmHg 59%
    09:00 +15°C° 0 mm 4 mps 758 mmHg 56%
    10:00 +17°C° 0 mm 4 mps 759 mmHg 52%
    11:00 +18°C° 0 mm 4 mps 759 mmHg 49%
    12:00 +19°C° 0 mm 4 mps 759 mmHg 48%
    13:00 +20°C° 0 mm 4 mps 759 mmHg 47%
    14:00 +20°C° 0 mm 4 mps 759 mmHg 46%
    15:00 +20°C° 0 mm 3 mps 759 mmHg 48%
    16:00 +20°C° 0 mm 3 mps 759 mmHg 50%
    17:00 +20°C° 0 mm 3 mps 759 mmHg 52%
    18:00 +18°C° 0 mm 2 mps 759 mmHg 58%
    19:00 +17°C° 0 mm 2 mps 759 mmHg 65%
    20:00 +15°C° 0 mm 2 mps 759 mmHg 72%
    21:00 +14°C° 0 mm 3 mps 758 mmHg 71%
    22:00 +14°C° 0 mm 3 mps 758 mmHg 70%
    23:00 +14°C° 0 mm 4 mps 758 mmHg 69%

    23 August, Thursday

    Time Temperature Precipitation Wind Pressure Humidity
    00:00 +14°C° 0 mm 4 mps 758 mmHg 71%
    01:00 +14°C° 0 mm 4 mps 758 mmHg 73%
    02:00 +14°C° 0 mm 4 mps 757 mmHg 75%
    03:00 +14°C° 0 mm 4 mps 757 mmHg 75%
    04:00 +14°C° 0 mm 5 mps 757 mmHg 76%
    05:00 +14°C° 0 mm 5 mps 757 mmHg 76%
    06:00 +15°C° 0.1 mm 5 mps 756 mmHg 75%
    07:00 +15°C° 0.1 mm 5 mps 756 mmHg 74%
    08:00 +16°C° 0.1 mm 5 mps 756 mmHg 74%
    09:00 +16°C° 0.5 mm 5 mps 756 mmHg 75%
    10:00 +17°C° 0.5 mm 5 mps 756 mmHg 76%
    11:00 +17°C° 0.5 mm 5 mps 755 mmHg 78%
    12:00 +19°C° 0.1 mm 4 mps 755 mmHg 78%
    13:00 +20°C° 0.1 mm 4 mps 755 mmHg 78%
    14:00 +20°C° 0.1 mm 4 mps 755 mmHg 79%
    15:00 +20°C° 0.1 mm 4 mps 755 mmHg 81%
    16:00 +20°C° 0.1 mm 4 mps 755 mmHg 84%
    17:00 +19°C° 0.1 mm 3 mps 755 mmHg 87%
    18:00 +19°C° 0 mm 3 mps 755 mmHg 90%
    19:00 +18°C° 0 mm 3 mps 755 mmHg 93%
    20:00 +17°C° 0 mm 2 mps 756 mmHg 96%
    21:00 +17°C° 0 mm 2 mps 756 mmHg 96%
    22:00 +16°C° 0 mm 2 mps 756 mmHg 97%
    23:00 +16°C° 0 mm 2 mps 756 mmHg 98%
    Show more